Location: Newark
(51.0000°N, 11.4100°E)
Time: 08:23:11
(UTC+00:00)

N. Korean satellite - Pass Details

Date: 27 October 2019
Orbit: 456 x 506 km, 97.2° (Epoch: 11 November)

Event Time Altitude Azimuth Distance (km) Brightness Sun altitude
Rises 17:09:08 0° 202° (SSW) 2,477 10.6 -11.7°
Reaches altitude 10° 17:11:36 10° 221° (SW) 1,615 9.9 -12.0°
Maximum altitude 17:14:08 19° 268° (W) 1,182 9.7 -12.4°
Drops below altitude 10° 17:16:42 10° 315° (NW) 1,643 9.8 -12.8°
Sets 17:19:15 0° 334° (NNW) 2,537 10.5 -13.2°
